Wind_Speed
56 52 50 49 46 35 24 21 20 20 22 24 25 28 28 30 30 24 33 26 23 19 16 15 17 15 22 39 55 59 58 59 63 71 76 77 74 72 72 70 66 62 63 72
56 50 46 47 49 45 34 26 21 22 23 25 26 27 28 27 29 26 22 30 25 19 18 17 16 14 14 24 37 47 56 61 61 65 74 77 77 75 73 73 68 65 65 65
58 50 45 44 46 45 45 38 31 26 24 24 25 25 26 23 27 26 22 19 29 25 19 18 16 13 12 15 29 34 38 50 57 61 69 77 80 78 74 72 70 66 67 64
57 52 46 43 45 42 42 42 37 30 26 24 26 25 25 25 27 25 25 18 18 28 25 20 18 17 12 12 20 34 33 33 43 57 62 70 79 81 76 73 72 70 69 67
57 52 45 42 44 43 41 41 39 35 30 26 25 24 25 26 26 25 23 23 13 18 26 24 20 18 14 13 13 27 38 39 39 38 51 60 72 82 80 75 73 73 72 67
56 53 49 41 44 44 43 41 42 41 39 33 28 25 24 22 22 22 23 21 19 9 19 25 22 22 17 13 13 15 31 36 35 33 41 45 63 79 83 78 75 74 73 69
54 53 48 40 40 42 42 42 44 45 45 46 38 30 22 20 19 20 21 21 19 16 7 22 23 23 20 17 13 13 16 30 35 35 39 42 47 61 83 85 80 78 76 73
52 52 49 43 38 39 39 41 42 44 45 47 50 45 31 18 17 18 19 20 20 17 11 11 24 26 23 19 17 14 16 19 27 35 40 42 48 50 61 75 82 79 77 76
51 49 49 46 37 36 37 39 41 43 44 46 46 49 46 26 16 17 18 18 19 19 15 9 15 29 28 25 19 17 17 19 21 28 37 41 40 41 51 51 58 71 69 71
51 49 48 47 42 36 34 36 38 40 43 45 45 45 43 43 27 19 19 18 17 18 18 14 9 20 30 29 26 22 21 19 20 24 29 33 41 44 41 40 45 49 57 62
48 49 47 46 44 38 34 32 34 37 40 44 45 46 45 41 37 34 25 21 20 18 16 16 13 8 22 33 31 28 26 23 22 22 24 28 31 37 43 45 46 50 51 52
47 48 47 45 44 41 37 32 31 33 36 39 42 43 44 45 44 41 34 31 27 20 17 15 15 12 8 21 37 35 33 30 29 27 27 26 27 29 34 40 46 53 55 55
46 47 47 45 43 42 40 36 32 30 32 33 35 38 41 44 44 45 44 41 35 28 25 17 14 14 15 12 20 34 38 37 37 36 34 32 32 33 34 35 42 45 48 51
45 46 45 44 42 41 39 38 35 31 29 30 30 33 37 39 42 43 45 44 43 40 34 26 22 16 15 16 16 18 28 38 41 40 40 40 40 39 39 42 44 45 47 49
44 45 44 43 42 40 39 37 35 33 30 29 29 29 31 34 37 38 40 43 42 42 40 37 32 27 20 17 16 18 20 23 32 40 44 44 44 45 45 45 46 47 45 48
44 46 44 43 42 40 38 36 35 34 31 29 28 28 30 30 32 34 36 38 41 41 42 40 37 34 31 28 23 18 18 22 25 28 36 44 46 48 47 49 49 49 49 47
47 47 45 43 42 41 38 36 34 33 31 29 28 27 29 29 30 31 33 33 36 39 39 39 38 36 35 33 32 30 26 21 23 28 32 35 40 48 52 54 53 55 55 53
50 50 48 44 41 40 38 36 34 31 31 29 28 28 27 27 29 30 30 31 34 35 37 37 37 37 36 35 36 35 35 33 27 23 24 33 39 41 45 51 56 58 60 61
51 52 50 48 43 39 38 37 34 30 30 29 28 27 27 26 26 28 29 31 32 33 35 37 37 37 37 36 36 37 37 36 35 33 29 25 25 35 44 48 51 55 59 62
51 51 51 50 45 41 38 37 35 31 29 28 28 26 25 25 25 25 28 29 30 31 33 36 38 38 38 37 37 38 39 39 38 38 36 37 36 32 30 37 48 54 57 58
52 51 51 50 47 43 39 38 35 33 29 27 27 26 24 25 24 24 25 27 28 29 31 33 36 38 38 38 39 40 41 41 42 42 42 43 44 41 37 33 33 39 50 56
54 52 50 50 49 45 42 39 38 34 31 27 26 26 24 23 24 24 24 25 26 28 30 32 34 36 37 38 40 42 44 45 45 47 48 48 51 47 47 41 36 35 36 40
54 52 50 50 48 46 44 40 39 36 33 30 26 25 25 23 23 24 24 24 24 26 29 31 33 34 37 39 41 43 47 49 51 51 53 55 55 54 54 45 38 35 35 37
55 52 50 49 49 48 44 42 39 38 34 32 29 25 24 23 23 24 24 23 23 25 27 30 32 34 35 38 42 45 48 52 56 58 60 62 62 62 60 54 42 40 41 43
55 52 50 48 48 48 44 43 41 39 35 33 31 26 24 24 23 23 24 24 23 24 26 28 30 33 34 37 41 46 50 54 59 62 66 67 67 70 63 55 49 49 50 51
52 51 48 47 47 46 44 43 42 40 36 33 32 30 24 24 24 24 24 24 24 24 25 27 30 33 35 38 42 47 51 56 61 65 69 75 71 76 67 59 59 58 57 55
50 50 48 46 47 45 44 43 43 42 37 34 33 31 27 23 25 26 25 25 25 25 26 28 30 32 36 39 43 48 53 58 64 68 72 78 77 77 71 68 67 64 57 50
Wind_Direction
4 6 9 9 9 3 345 328 318 314 312 314 320 326 330 332 334 283 257 254 259 259 263 265 254 261 236 229 229 232 234 233 229 225 225 227 227 227 226 228 228 231 235 231
7 8 12 13 13 13 4 349 327 320 317 315 317 322 329 330 335 334 281 255 255 257 253 266 266 254 255 228 229 228 233 236 233 227 225 227 227 228 228 229 229 230 235 238
6 10 14 16 17 14 12 9 354 336 329 325 326 324 324 326 333 340 334 279 254 254 252 255 264 256 244 238 224 229 228 231 230 228 227 227 226 228 229 231 232 231 233 235
7 8 15 15 18 15 13 13 10 3 354 343 336 331 325 329 335 345 344 335 270 252 249 248 257 260 251 245 239 218 220 225 224 228 226 227 227 227 229 232 235 234 234 234
7 9 12 16 17 17 17 10 8 3 356 346 336 336 331 331 337 343 344 346 328 256 247 246 248 260 256 243 250 225 211 217 215 221 228 226 229 226 228 231 235 238 239 238
5 7 10 12 14 15 17 17 15 13 11 359 343 338 334 330 339 346 348 346 354 324 243 244 242 250 257 241 241 234 213 208 220 220 223 231 231 226 226 230 234 238 241 244
2 7 8 11 10 12 14 15 15 16 15 13 5 351 331 330 339 345 350 353 354 355 278 236 236 240 254 248 233 237 222 210 211 220 220 226 235 236 227 230 234 238 240 243
1 4 6 11 12 13 13 15 19 18 17 17 16 13 1 340 341 343 349 354 358 353 349 253 231 232 241 251 248 231 227 210 214 214 216 217 220 232 238 235 234 237 243 246
360 2 4 9 9 8 11 14 18 20 19 19 19 20 19 8 350 345 348 351 354 355 351 333 241 229 235 241 249 247 235 216 215 220 218 213 214 217 225 229 239 243 248 252
358 360 2 5 9 6 7 10 14 19 20 21 21 21 20 22 11 350 343 343 344 347 348 345 319 239 233 238 241 250 255 250 224 220 219 219 218 217 217 224 235 242 247 252
358 358 360 3 6 6 4 5 10 13 19 23 24 25 25 22 19 19 3 338 331 334 339 335 331 304 240 235 240 243 249 251 256 252 230 220 221 224 221 224 228 233 237 241
355 357 357 0 3 4 3 0 2 9 14 21 24 26 26 26 26 24 17 15 8 344 327 326 321 310 278 243 238 240 243 247 253 255 254 246 233 226 227 229 230 232 236 240
353 354 355 358 0 2 1 1 359 3 9 13 16 19 22 27 29 28 25 23 20 12 10 346 316 312 300 273 247 244 245 248 251 254 256 256 254 248 240 237 240 241 241 243
350 351 352 355 357 359 358 359 358 358 1 2 8 11 14 18 21 25 28 27 26 23 20 12 5 342 306 300 286 262 247 247 249 250 253 255 257 257 256 256 255 251 251 251
348 348 349 351 354 355 355 356 356 357 355 355 358 3 6 8 13 17 19 22 24 25 24 22 18 14 1 344 309 292 282 267 254 249 252 254 255 256 256 254 251 248 249 252
345 346 347 348 351 352 352 350 353 355 353 352 350 354 357 1 6 10 15 18 21 22 24 23 22 19 16 13 3 334 299 279 273 267 257 250 253 254 255 255 256 256 252 250
343 343 345 346 347 349 348 344 347 351 349 348 346 347 352 355 359 6 10 13 15 17 19 21 21 21 20 19 15 10 357 333 293 273 267 262 258 255 254 256 257 256 256 255
341 342 341 342 345 344 344 341 342 344 345 344 343 342 346 349 353 356 3 6 10 13 15 17 18 20 20 20 19 19 18 11 358 337 302 276 268 263 259 257 256 256 256 255
338 340 339 337 339 340 340 338 338 338 338 339 339 338 339 344 347 349 354 359 5 8 11 11 13 15 17 16 17 17 16 16 16 10 360 341 311 280 270 264 260 258 257 257
334 337 338 335 333 335 334 333 334 332 331 333 333 334 334 337 340 344 348 352 358 3 5 7 8 10 11 11 11 11 12 11 11 10 8 7 357 339 308 280 268 264 262 260
331 331 335 333 330 329 329 328 329 329 326 325 326 327 329 330 333 335 340 345 351 354 358 2 4 6 7 7 7 7 7 6 6 4 3 1 357 354 338 322 298 279 267 262
328 328 329 330 327 324 325 324 323 324 323 319 319 320 321 324 325 327 331 338 344 347 351 355 358 1 3 4 4 3 3 3 2 1 358 356 354 353 350 339 320 304 291 279
325 325 325 326 324 322 321 320 319 320 320 316 313 313 315 317 318 320 322 328 335 340 344 347 351 355 357 359 0 0 359 359 359 357 357 354 353 350 348 343 328 313 304 297
321 322 321 322 322 320 318 316 315 315 316 313 308 306 307 309 310 311 314 318 324 331 337 340 344 348 353 355 355 356 357 356 357 355 353 352 349 349 345 341 332 320 312 305
317 317 318 318 319 318 316 313 311 312 312 311 306 298 301 302 302 303 306 309 314 321 329 334 338 341 347 350 351 353 354 354 354 354 352 350 347 347 343 337 330 325 317 308
314 313 313 313 315 315 313 311 308 308 308 306 304 299 293 295 295 296 298 302 306 312 322 328 332 336 340 344 348 350 352 352 352 351 351 349 346 345 342 337 333 326 319 312
309 308 309 309 310 311 311 310 307 305 306 303 300 297 288 287 288 289 292 296 301 306 315 323 328 333 337 341 345 348 350 351 351 350 350 348 346 345 341 339 334 330 325 318
Height
5604 5591 5580 5569 5559 5549 5541 5537 5533 5529 5525 5522 5518 5514 5509 5503 5497 5493 5495 5499 5502 5503 5503 5503 5503 5503 5504 5507 5516 5525 5534 5544 5554 5566 5575 5584 5596 5606 5615 5623 5633 5641 5647 5649
5607 5595 5583 5571 5560 5549 5540 5535 5530 5526 5522 5518 5514 5510 5504 5499 5493 5488 5486 5489 5492 5495 5497 5497 5497 5498 5498 5500 5506 5514 5521 5530 5541 5552 5562 5571 5582 5593 5602 5610 5618 5627 5633 5639
5608 5596 5585 5574 5561 5551 5541 5534 5528 5523 5519 5514 5510 5506 5502 5497 5492 5486 5482 5480 5483 5487 5490 5491 5492 5493 5493 5495 5499 5505 5510 5517 5528 5538 5548 5558 5568 5579 5589 5598 5605 5613 5620 5627
5609 5596 5584 5575 5565 5556 5546 5537 5530 5523 5518 5513 5509 5504 5498 5493 5490 5485 5480 5476 5475 5478 5482 5486 5487 5488 5489 5491 5493 5497 5502 5509 5516 5524 5534 5544 5554 5566 5575 5584 5591 5599 5605 5613
5610 5599 5590 5579 5569 5561 5552 5543 5533 5526 5518 5512 5506 5501 5495 5490 5486 5482 5478 5474 5470 5471 5475 5479 5483 5484 5486 5487 5490 5492 5496 5502 5508 5514 5522 5531 5540 5551 5562 5571 5578 5584 5591 5598
5610 5600 5589 5580 5572 5565 5557 5548 5538 5529 5519 5510 5503 5497 5493 5488 5484 5480 5476 5472 5469 5467 5469 5473 5477 5480 5482 5483 5485 5487 5490 5494 5500 5506 5512 5519 5526 5536 5548 5558 5565 5570 5577 5584
5613 5603 5594 5583 5575 5567 5559 5553 5539 5528 5518 5509 5500 5492 5488 5484 5482 5479 5475 5472 5468 5465 5464 5467 5471 5474 5477 5479 5480 5483 5485 5488 5492 5498 5504 5510 5515 5523 5534 5543 5551 5558 5564 5570
5615 5606 5597 5584 5577 5569 5563 5553 5542 5532 5522 5513 5504 5493 5485 5481 5480 5477 5474 5471 5468 5464 5462 5462 5465 5469 5472 5475 5477 5479 5481 5483 5486 5490 5495 5501 5507 5512 5520 5529 5537 5544 5550 5556
5616 5606 5597 5587 5578 5572 5564 5556 5547 5538 5528 5519 5508 5498 5488 5482 5479 5477 5474 5471 5468 5465 5461 5459 5460 5463 5466 5470 5473 5475 5477 5479 5481 5485 5489 5493 5499 5503 5510 5518 5524 5531 5537 5543
5619 5609 5599 5590 5580 5574 5567 5559 5552 5544 5534 5523 5513 5503 5495 5487 5480 5477 5474 5470 5467 5465 5462 5459 5457 5458 5462 5465 5467 5470 5472 5474 5476 5478 5482 5485 5490 5495 5499 5506 5513 5519 5525 5530
5619 5609 5600 5592 5583 5575 5568 5562 5555 5547 5539 5527 5517 5508 5500 5493 5485 5478 5473 5469 5466 5463 5461 5458 5456 5455 5455 5458 5461 5464 5466 5468 5470 5472 5474 5477 5480 5483 5487 5494 5501 5508 5512 5517
5619 5610 5601 5592 5583 5577 5569 5563 5557 5549 5541 5532 5523 5515 5507 5499 5491 5483 5476 5470 5464 5460 5458 5456 5454 5452 5451 5451 5453 5457 5460 5462 5464 5466 5467 5469 5471 5474 5477 5482 5488 5494 5499 5502
5619 5610 5602 5593 5585 5578 5571 5564 5557 5550 5542 5536 5529 5521 5512 5504 5496 5489 5482 5474 5467 5462 5457 5453 5451 5449 5447 5446 5447 5449 5452 5454 5455 5457 5459 5460 5462 5464 5468 5472 5475 5479 5483 5487
5616 5609 5601 5592 5584 5577 5571 5564 5556 5549 5543 5537 5530 5524 5517 5509 5501 5494 5487 5480 5473 5465 5459 5454 5450 5446 5444 5442 5442 5441 5442 5444 5446 5448 5449 5451 5452 5454 5456 5458 5461 5464 5466 5470
5614 5606 5599 5591 5583 5576 5570 5563 5556 5548 5542 5536 5530 5524 5518 5512 5505 5498 5491 5484 5478 5471 5463 5457 5451 5447 5443 5440 5437 5436 5435 5434 5434 5435 5438 5440 5441 5442 5444 5445 5446 5448 5449 5452
5611 5603 5596 5589 5580 5574 5567 5561 5555 5548 5541 5536 5530 5525 5519 5514 5508 5501 5494 5487 5480 5474 5468 5461 5454 5448 5443 5439 5434 5431 5429 5427 5426 5425 5424 5425 5426 5427 5428 5429 5430 5432 5434 5435
5607 5599 5592 5585 5577 5571 5565 5560 5554 5547 5540 5534 5529 5524 5519 5514 5508 5501 5495 5490 5484 5477 5470 5465 5458 5452 5446 5440 5434 5429 5423 5419 5416 5415 5414 5413 5413 5412 5413 5414 5415 5416 5418 5419
5602 5595 5588 5581 5574 5567 5562 5557 5551 5545 5539 5533 5527 5522 5517 5512 5507 5501 5495 5490 5484 5478 5472 5467 5461 5455 5448 5442 5436 5430 5423 5417 5411 5407 5404 5402 5401 5400 5399 5398 5398 5399 5399 5401
5597 5589 5583 5576 5569 5563 5557 5552 5546 5541 5536 5530 5525 5520 5515 5510 5505 5500 5495 5489 5483 5477 5473 5468 5461 5455 5449 5443 5437 5431 5425 5418 5412 5406 5400 5395 5391 5388 5385 5384 5382 5382 5382 5382
5590 5583 5577 5570 5564 5558 5552 5546 5541 5536 5531 5527 5522 5517 5512 5508 5503 5499 5494 5489 5483 5478 5472 5467 5461 5455 5449 5443 5437 5430 5424 5418 5412 5406 5399 5392 5386 5380 5374 5370 5366 5365 5363 5363
5583 5576 5570 5564 5557 5551 5546 5540 5535 5530 5525 5521 5517 5513 5508 5504 5500 5496 5492 5487 5482 5477 5471 5466 5460 5454 5448 5442 5435 5429 5422 5415 5409 5402 5396 5389 5381 5373 5366 5358 5352 5347 5344 5343
5576 5569 5563 5556 5550 5544 5539 5534 5529 5524 5519 5515 5512 5507 5503 5499 5495 5491 5487 5484 5479 5474 5469 5463 5458 5453 5447 5440 5433 5426 5419 5412 5405 5398 5390 5383 5374 5366 5358 5349 5341 5334 5329 5325
5567 5561 5554 5548 5542 5536 5531 5527 5522 5517 5512 5508 5504 5501 5497 5493 5490 5486 5483 5479 5475 5470 5466 5460 5455 5449 5443 5437 5430 5423 5415 5408 5400 5392 5384 5376 5367 5358 5348 5340 5331 5324 5317 5311
5557 5551 5545 5539 5533 5528 5523 5518 5513 5509 5505 5501 5497 5494 5491 5488 5484 5481 5477 5474 5470 5466 5462 5457 5451 5445 5439 5432 5425 5418 5411 5402 5394 5385 5376 5367 5356 5346 5336 5327 5318 5311 5303 5296
5547 5541 5536 5530 5524 5518 5514 5509 5504 5500 5496 5493 5489 5485 5483 5480 5478 5475 5472 5468 5464 5461 5457 5452 5447 5441 5435 5428 5421 5413 5405 5396 5387 5378 5368 5357 5346 5335 5322 5312 5303 5294 5285 5274
5536 5530 5526 5520 5514 5509 5504 5500 5495 5490 5487 5484 5480 5477 5474 5471 5469 5467 5464 5461 5458 5455 5451 5447 5442 5436 5430 5423 5416 5408 5400 5390 5381 5369 5358 5347 5334 5322 5309 5297 5286 5274 5261 5250
5525 5519 5514 5509 5504 5499 5494 5490 5485 5481 5477 5474 5471 5468 5466 5463 5461 5459 5456 5454 5451 5448 5445 5441 5436 5430 5424 5417 5410 5402 5393 5383 5373 5362 5349 5337 5322 5308 5294 5281 5267 5252 5239 5227